Location: Moscow
(55.7500°N, 37.5830°E)
Time: 17:35:28
(UTC+03:00)

Transit 2A - Pass Details

Date: 07 December 2021
Orbit: 591 x 967 km, 66.7° (Epoch: 21 January)

Event Time Altitude Azimuth Distance (km) Brightness Sun altitude
Rises 08:38:35 0° 316° (NW) 3,657 - -1.4°
Exits shadow 08:39:03 - 315° (NW) 3,492 8.7 -1.4°
Reaches altitude 10° 08:41:16 10° 311° (NW) 2,716 8.2 -1.1°
Maximum altitude 08:47:17 45° 241° (WSW) 1,288 7.1 -0.5°
Drops below altitude 10° 08:53:08 10° 171° (S) 2,627 9.7 0.1°
Sets 08:55:41 0° 165° (SSE) 3,526 10.6 0.4°
